Showing default

ORBCOMM FM 112, 41184

Orbit data source: Space-Track

ORBCOMM FM 112, 41184 is a payload satellite owned by Orbcomm (US) in LEO that was launched on Tue, 22 Dec 2015 UTC via an FALCON 9 launch vehicle from the Air Force Eastern Test Range (AFETR). Payload-class satellites include a variety of spacecraft equipped with specific instruments for various scientific and technological missions. These include communications satellites like Starlink; space stations such as the ISS; scientific satellites like the Hubble; Earth observation satellites from companies like Planet Labs, Umbra, and HawkEye 360; GPS; miniature CubeSats for education and research; and military/defense satellites.

Loading next visibility...
Identifier
41184, 2015-081F
Orbit
LEO
Country
Flag of USUS / ORB
Related business
Manufacturer
SNC Louisville
Mission
Operational Commercial Communications
Bus & Motor
SN-100A, Unknown motor
Mass
172 kg wet, 158 kg dry
Launch date (UTC)
2015-12-22 (10 years ago)
Launch vehicle
FALCON 9
Launch site
Air Force Eastern Test Range (AFETR)
Object type
Payload
Rocket body
Debris
Shape & HBR
Box + 1 Pan + 1 Ant, 5.3 m
Radar Cross Section
2.222 m², Large (>1 m²)

Expand to show TLE details & history
Last TLE update: 6 hours ago

TLE from 6 hours ago
0 ORBCOMM FM 112
1 41184U 15081F   26150.54200089  .00000954  00000-0  23802-3 0  9991
2 41184  47.0005 353.6841 0002626 132.7082 227.4025 14.58875455556375
Epoch: 2026-05-30T13:00Z
TLE epoch observation values (Epoch: 2026-05-30T13:00:28.876Z)
Latitude
-0.00005°
Longitude
-89.4928°
Altitude
698.28 km
Speed
7.508 km/s
True Right ascension
23h 34m 44s
True Declination
0° 00' 00"
Sunlit
Object was in daylight at epoch
Visualization orbit readout
Latitude
Unknown
Longitude
Unknown
Altitude
Unknown
Speed
Unknown
Apparent Right ascension
Unknown
Apparent Declination
Unknown
Sunlit
N/A
Visualization observer readout
Local Sidereal Time
04:51:13
Azimuth
Unknown
Elevation
Unknown
Doppler factor
Unknown
Orbital elements
Apogee altitude
699.901 km
Perigee altitude
696.184 km
Semi-major axis
7,076.179 km
Eccentricity
0.00026
Inclination
47.0005°
RAAN
353.6841°
Arg. of periapsis
132.7082°
True anomaly
227.38035°
Mean anomaly
227.4025°
Eccentric anomaly
227.39143°
Mean motion
3.64624 °/min
Orbital period
98.73 mins
BSTAR
0.00023802
Loading maneuver chart data...
Computing Atmospheric mass density...
Loading historical data...
Loading historical data...
Loading historical data...
Loading historical data...
Loading historical data...
Loading historical data...
Loading historical data...

Documentation

Showing up to 5 results
|